"Pseudo-MPEC" for P110923

Created 2020 May 25 22:07:13 UT using Find_Orb

Click here for an explanation of pseudo-MPECs

 
 Astrometry: 
     P110923  C2020 05 14stThs\7;7n3X:CK)@4?)uu#(SNOGjD'cAstrometry5,kqw,cktAF51
     P110923  C2020 05 14`qGi7[.@V*C_7rh^2eY*Tredacted;euLc\5.00H'W7m^#*[bu-*F51
     P110923  C2020 05 14ZIpy)THPZe2otBYB#k4A^4Yar:$mH.'K%[.Y5W/IvupqQmtB[;oNF51
     P110923  C2020 05 14BgiF4kTp3w%Gf6052,-]W8*R[eG;4v]U?)clickid8_Z%6_LVO]kF51
     P110923 ^C2020 05 18.46230715 54 49.062-29 07 50.96   ~5PHb 20.93GVNEOCP568
     P110923 ^C2020 05 18.46325415 54 48.948-29 07 49.80   ~5PHb 20.87GVNEOCP568
     P110923 ^C2020 05 18.46420515 54 48.836-29 07 48.72   ~5PHb 20.85GVNEOCP568
     P110923 ^C2020 05 21.32501115 50 03.659-28 04 59.88   ~5PHb 20.69GVNEOCP568
     P110923 ^C2020 05 21.32690615 50 03.417-28 04 57.32   ~5PHb 20.68GVNEOCP568
     P110923 ^C2020 05 21.32788315 50 03.295-28 04 56.05   ~5PHb 20.72GVNEOCP568
     P110923  C2020 05 25bCRyk),HTA\*Y7IbhereZgT@GZ0a,g6C2Rf?+A04Mj\'ereD/h-jF51
     P110923  C2020 05 25U;d#ut\;.YNaFmlgWfor[nGqv2j;1S*rC93apc64EQC$%^$L*E)?F51
     P110923  C2020 05 25:*7jq[+(4i2)3sSv/hu;eT@IXGSX*sexplanationL5d`E!h3EBEF51

Station data:
(568) Mauna Kea  (N19.826116 W155.472200)  US/Hawaii.
(F51) Pan-STARRS 1, Haleakala  (N20.707235 W156.255910)  US/Hawaii.
   Observers N. Primak, A. Schultz, S. Watters, J. Thiel, T. Goggia. Measurer
   PS1 Science Consortium. 1.8-m Ritchey-Chrétien + CCD.

Orbital elements:  P110923
   Perihelion 2020 Aug 27.644517 +/- 0.0468 TT = 15:28:06 (JD 2459089.144517)
Epoch 2020 May 25.0 TT = JDT 2458994.5   Earth MOID: 0.0389   AutoNEOCP
M 286.69251684 +/- 0.15             (J2000 ecliptic)
n   0.77455604 +/- 0.00126          Peri.   84.51585 +/- 0.0030
a   1.17426869 +/- 0.00127          Node   253.55316 +/- 0.012
e   0.1858499 +/- 0.00125           Incl.    4.48151 +/- 0.026
P   1.27/464.77d           H 24.3   G  0.15   U  8.3  
q 0.95603088 +/- 0.000429    Q 1.39250650 +/- 0.00297
From 13 observations 2020 May 14-25; mean residual 0".06
Residuals in arcseconds: 
200514 F51  .07-  .07-    200518 568  .01+  .03+    200525 F51  .05+  .02+    
200514 F51  .09-  .14+    200518 568  .03+  .05-    200525 F51  .04+  .05-    
200514 F51  .03+  .01-    200521 568  .05-  .02-    200525 F51  .04-  .06+    
200514 F51  .14+  .03-    200521 568  .05-  .00     
200518 568  .02+  .03+    200521 568  .02-  .04-    

Ephemerides (geocentric):
Date (UTC) HH   RA              Dec         delta   r     elong  mag " sig PA
---- -- -- --  -------------   -----------  ------ ------ -----  --- ---- ---
2020 05 25 22  15 41 15.007   -25 58 15.52  .13655 1.1483 171.5 20.8 .353  19
2020 05 25 23  15 41 09.924   -25 56 57.70  .13643 1.1482 171.5 20.8 .355  20
2020 05 26 00  15 41 04.836   -25 55 39.71  .13631 1.1481 171.4 20.8 .358  22
2020 05 26 01  15 40 59.743   -25 54 21.54  .13619 1.1479 171.4 20.8 .360  23
2020 05 26 02  15 40 54.645   -25 53 03.21  .13606 1.1478 171.4 20.8 .363  25
2020 05 26 03  15 40 49.542   -25 51 44.70  .13594 1.1477 171.3 20.8 .366  26
2020 05 26 04  15 40 44.434   -25 50 26.03  .13582 1.1476 171.3 20.8 .369  27
2020 05 26 05  15 40 39.322   -25 49 07.18  .13569 1.1474 171.3 20.8 .372  29
2020 05 26 06  15 40 34.205   -25 47 48.16  .13557 1.1473 171.2 20.8 .376  30
2020 05 26 07  15 40 29.083   -25 46 28.97  .13545 1.1472 171.2 20.8 .380  32
2020 05 26 08  15 40 23.956   -25 45 09.61  .13533 1.1471 171.2 20.8 .384  33
2020 05 26 09  15 40 18.824   -25 43 50.08  .13521 1.1469 171.1 20.8 .388  35
2020 05 26 10  15 40 13.688   -25 42 30.37  .13509 1.1468 171.1 20.8 .393  36
2020 05 26 11  15 40 08.547   -25 41 10.50  .13496 1.1467 171.1 20.8 .398  37
2020 05 26 12  15 40 03.401   -25 39 50.45  .13484 1.1466 171.0 20.8 .403  39
2020 05 26 13  15 39 58.251   -25 38 30.23  .13472 1.1464 171.0 20.8 .409  40
2020 05 26 14  15 39 53.096   -25 37 09.83  .13460 1.1463 171.0 20.8 .414  41
2020 05 26 15  15 39 47.936   -25 35 49.27  .13448 1.1462 170.9 20.8 .420  43
2020 05 26 16  15 39 42.772   -25 34 28.53  .13436 1.1461 170.9 20.8 .427  44
2020 05 26 17  15 39 37.603   -25 33 07.62  .13424 1.1459 170.8 20.8 .433  45
2020 05 26 18  15 39 32.429   -25 31 46.53  .13412 1.1458 170.8 20.8 .440  47
2020 05 26 19  15 39 27.251   -25 30 25.27  .13400 1.1457 170.8 20.8 .447  48
2020 05 26 20  15 39 22.068   -25 29 03.84  .13388 1.1456 170.7 20.8 .454  49
2020 05 26 21  15 39 16.881   -25 27 42.24  .13376 1.1454 170.7 20.8 .462  51
2020 05 26 22  15 39 11.689   -25 26 20.46  .13364 1.1453 170.6 20.8 .470  52
2020 05 26 23  15 39 06.493   -25 24 58.51  .13352 1.1452 170.6 20.8 .478  53
2020 05 27 00  15 39 01.293   -25 23 36.39  .13340 1.1451 170.6 20.8 .487  54
2020 05 27 01  15 38 56.087   -25 22 14.09  .13328 1.1449 170.5 20.8 .495  55
2020 05 27 02  15 38 50.878   -25 20 51.62  .13316 1.1448 170.5 20.8 .504  56
2020 05 27 03  15 38 45.664   -25 19 28.97  .13304 1.1447 170.4 20.8 .514  58
2020 05 27 04  15 38 40.445   -25 18 06.15  .13292 1.1446 170.4 20.8 .523  59
2020 05 27 05  15 38 35.223   -25 16 43.15  .13280 1.1444 170.4 20.8 .533  60
2020 05 27 06  15 38 29.995   -25 15 19.99  .13268 1.1443 170.3 20.8 .544  61
2020 05 27 07  15 38 24.764   -25 13 56.64  .13256 1.1442 170.3 20.8 .554  62
2020 05 27 08  15 38 19.528   -25 12 33.12  .13244 1.1441 170.2 20.8 .565  63
2020 05 27 09  15 38 14.288   -25 11 09.43  .13233 1.1439 170.2 20.8 .576  64
2020 05 27 10  15 38 09.043   -25 09 45.56  .13221 1.1438 170.1 20.8 .587  65
2020 05 27 11  15 38 03.795   -25 08 21.52  .13209 1.1437 170.1 20.8 .599  66
2020 05 27 12  15 37 58.542   -25 06 57.30  .13197 1.1436 170.1 20.8 .611  67
2020 05 27 13  15 37 53.284   -25 05 32.91  .13185 1.1434 170.0 20.8 .623  67
2020 05 27 14  15 37 48.023   -25 04 08.34  .13174 1.1433 170.0 20.8 .635  68
2020 05 27 15  15 37 42.757   -25 02 43.60  .13162 1.1432 169.9 20.8 .648  69
2020 05 27 16  15 37 37.487   -25 01 18.68  .13150 1.1431 169.9 20.8 .661  70
2020 05 27 17  15 37 32.213   -24 59 53.58  .13138 1.1429 169.8 20.8 .674  71
2020 05 27 18  15 37 26.935   -24 58 28.31  .13127 1.1428 169.8 20.8 .688  72
2020 05 27 19  15 37 21.653   -24 57 02.86  .13115 1.1427 169.7 20.8 .702  72
2020 05 27 20  15 37 16.366   -24 55 37.24  .13103 1.1426 169.7 20.8 .716  73
2020 05 27 21  15 37 11.076   -24 54 11.44  .13092 1.1424 169.7 20.8 .730  74